When you browse on this site, cookies collect data to enhance your experience and personalize the content and advertising you see.
Visit our Privacy Policy to learn more. By continuing to use the site, you agree to this use of cookies and data.
  • în România
  • Lista ţărilor
  • Pe 7 zile
  • Temperatura apei
  • Hartă satelitară
  • Meteo pe hartă
  • Widget-uri
  • user-avatar
    Intrare

    Meteo pe oră la San Miguel de Tucumán

    Astăzi, 22 Martie, Vineri

    Timp Temperatura Precipitaţii Vânt Presiune Umiditate
    00:00 +16°C° 0 mm 1 m/s 720 mmHg 88%
    01:00 +16°C° 0 mm 1 m/s 720 mmHg 88%
    02:00 +16°C° 0 mm 1 m/s 720 mmHg 88%
    03:00 +16°C° 0 mm 1 m/s 720 mmHg 89%
    04:00 +16°C° 0 mm 1 m/s 720 mmHg 89%
    05:00 +14°C° 0 mm 0 m/s 720 mmHg 90%
    06:00 +16°C° 0 mm 0 m/s 720 mmHg 85%
    07:00 +17°C° 0 mm 0 m/s 721 mmHg 81%
    08:00 +18°C° 0 mm 0 m/s 721 mmHg 77%
    09:00 +22°C° 0 mm 1 m/s 721 mmHg 70%
    10:00 +24°C° 0 mm 2 m/s 722 mmHg 64%
    11:00 +26°C° 0 mm 2 m/s 722 mmHg 57%
    12:00 +27°C° 0 mm 2 m/s 721 mmHg 56%
    13:00 +28°C° 0 mm 2 m/s 721 mmHg 54%
    14:00 +29°C° 0 mm 3 m/s 721 mmHg 53%
    15:00 +29°C° 0 mm 2 m/s 720 mmHg 56%
    16:00 +28°C° 0 mm 2 m/s 720 mmHg 59%
    17:00 +28°C° 0 mm 2 m/s 720 mmHg 63%
    18:00 +26°C° 0 mm 1 m/s 720 mmHg 69%
    19:00 +24°C° 0 mm 1 m/s 720 mmHg 76%
    20:00 +20°C° 0 mm 0 m/s 721 mmHg 83%
    21:00 +22°C° 0 mm 1 m/s 721 mmHg 84%
    22:00 +22°C° 0 mm 1 m/s 721 mmHg 86%
    23:00 +21°C° 0 mm 1 m/s 722 mmHg 87%

    Mâine, 23 Martie, Sâmbătă

    Timp Temperatura Precipitaţii Vânt Presiune Umiditate
    00:00 +21°C° 0 mm 1 m/s 722 mmHg 88%
    01:00 +21°C° 0 mm 1 m/s 721 mmHg 88%
    02:00 +20°C° 0 mm 1 m/s 721 mmHg 89%
    03:00 +20°C° 0 mm 1 m/s 721 mmHg 89%
    04:00 +20°C° 0 mm 1 m/s 721 mmHg 90%
    05:00 +19°C° 0 mm 1 m/s 720 mmHg 90%
    06:00 +21°C° 0 mm 1 m/s 721 mmHg 85%
    07:00 +22°C° 0 mm 1 m/s 721 mmHg 81%
    08:00 +23°C° 0 mm 1 m/s 721 mmHg 76%
    09:00 +25°C° 0 mm 1 m/s 721 mmHg 69%
    10:00 +27°C° 0 mm 2 m/s 721 mmHg 62%
    11:00 +30°C° 0 mm 2 m/s 721 mmHg 54%
    12:00 +31°C° 0 mm 2 m/s 720 mmHg 52%
    13:00 +31°C° 0 mm 3 m/s 719 mmHg 51%
    14:00 +33°C° 0 mm 3 m/s 719 mmHg 49%
    15:00 +31°C° 0 mm 2 m/s 718 mmHg 54%
    16:00 +30°C° 0 mm 2 m/s 718 mmHg 58%
    17:00 +29°C° 0 mm 2 m/s 717 mmHg 63%
    18:00 +28°C° 0 mm 1 m/s 718 mmHg 67%
    19:00 +27°C° 0 mm 1 m/s 718 mmHg 72%
    20:00 +25°C° 0 mm 1 m/s 719 mmHg 76%
    21:00 +25°C° 0 mm 1 m/s 719 mmHg 78%
    22:00 +24°C° 0 mm 1 m/s 720 mmHg 81%
    23:00 +24°C° 0 mm 1 m/s 720 mmHg 83%

    Poimâine, 24 Martie, Duminică

    Timp Temperatura Precipitaţii Vânt Presiune Umiditate
    00:00 +23°C° 0 mm 1 m/s 720 mmHg 84%
    01:00 +23°C° 0 mm 1 m/s 720 mmHg 84%
    02:00 +23°C° 0 mm 1 m/s 720 mmHg 85%
    03:00 +22°C° 0.1 mm 1 m/s 720 mmHg 86%
    04:00 +22°C° 0.1 mm 1 m/s 720 mmHg 87%
    05:00 +19°C° 0.1 mm 0 m/s 720 mmHg 88%
    06:00 +21°C° 0.1 mm 0 m/s 721 mmHg 85%
    07:00 +24°C° 0.1 mm 1 m/s 722 mmHg 82%
    08:00 +25°C° 0.1 mm 1 m/s 723 mmHg 79%
    09:00 +26°C° 0.2 mm 1 m/s 723 mmHg 72%
    10:00 +28°C° 0.2 mm 1 m/s 723 mmHg 65%
    11:00 +30°C° 0.2 mm 2 m/s 723 mmHg 57%
    12:00 +30°C° 0.2 mm 2 m/s 723 mmHg 56%
    13:00 +31°C° 0.2 mm 2 m/s 722 mmHg 55%
    14:00 +31°C° 0.2 mm 2 m/s 721 mmHg 53%
    15:00 +30°C° 0.5 mm 2 m/s 721 mmHg 58%
    16:00 +30°C° 0.5 mm 1 m/s 720 mmHg 63%
    17:00 +29°C° 0.5 mm 1 m/s 720 mmHg 68%
    18:00 +27°C° 1.2 mm 1 m/s 720 mmHg 74%
    19:00 +25°C° 1.2 mm 1 m/s 721 mmHg 80%
    20:00 +24°C° 1.2 mm 1 m/s 721 mmHg 87%
    21:00 +23°C° 0.5 mm 1 m/s 722 mmHg 89%
    22:00 +23°C° 0.5 mm 1 m/s 722 mmHg 91%
    23:00 +22°C° 0.5 mm 1 m/s 722 mmHg 93%

    25 Martie, Luni

    Timp Temperatura Precipitaţii Vânt Presiune Umiditate
    00:00 +22°C° 0.2 mm 1 m/s 722 mmHg 94%
    01:00 +22°C° 0.2 mm 1 m/s 722 mmHg 95%
    02:00 +22°C° 0.2 mm 1 m/s 722 mmHg 96%
    03:00 +21°C° 0.3 mm 1 m/s 722 mmHg 97%
    04:00 +20°C° 0.3 mm 2 m/s 722 mmHg 97%
    05:00 +20°C° 0.3 mm 2 m/s 721 mmHg 97%
    06:00 +20°C° 0.3 mm 2 m/s 722 mmHg 97%
    07:00 +19°C° 0.3 mm 2 m/s 722 mmHg 96%
    08:00 +19°C° 0.3 mm 2 m/s 723 mmHg 96%
    09:00 +19°C° 0.2 mm 2 m/s 723 mmHg 92%
    10:00 +19°C° 0.2 mm 2 m/s 723 mmHg 88%
    11:00 +20°C° 0.2 mm 1 m/s 723 mmHg 83%
    12:00 +21°C° 0.1 mm 1 m/s 722 mmHg 79%
    13:00 +21°C° 0.1 mm 1 m/s 721 mmHg 75%
    14:00 +22°C° 0.1 mm 1 m/s 721 mmHg 71%
    15:00 +22°C° 0 mm 1 m/s 720 mmHg 72%
    16:00 +22°C° 0 mm 1 m/s 720 mmHg 74%
    17:00 +21°C° 0 mm 1 m/s 720 mmHg 75%
    18:00 +21°C° 0 mm 1 m/s 720 mmHg 78%
    19:00 +20°C° 0 mm 1 m/s 721 mmHg 81%
    20:00 +19°C° 0 mm 1 m/s 721 mmHg 85%
    21:00 +19°C° 0 mm 1 m/s 722 mmHg 86%
    22:00 +17°C° 0 mm 0 m/s 722 mmHg 88%
    23:00 +17°C° 0 mm 0 m/s 723 mmHg 89%

    26 Martie, Marţi

    Timp Temperatura Precipitaţii Vânt Presiune Umiditate
    00:00 +17°C° 0.1 mm 0 m/s 722 mmHg 90%
    01:00 +18°C° 0.1 mm 1 m/s 722 mmHg 90%
    02:00 +18°C° 0.1 mm 1 m/s 722 mmHg 91%
    03:00 +18°C° 0.2 mm 1 m/s 722 mmHg 92%
    04:00 +18°C° 0.2 mm 1 m/s 722 mmHg 92%
    05:00 +16°C° 0.2 mm 1 m/s 722 mmHg 93%
    06:00 +16°C° 0.2 mm 1 m/s 723 mmHg 93%
    07:00 +16°C° 0.2 mm 1 m/s 724 mmHg 93%
    08:00 +16°C° 0.2 mm 1 m/s 724 mmHg 93%
    09:00 +16°C° 0.1 mm 1 m/s 724 mmHg 93%
    10:00 +16°C° 0.1 mm 1 m/s 724 mmHg 94%
    11:00 +16°C° 0.1 mm 1 m/s 725 mmHg 94%
    12:00 +18°C° 0.1 mm 1 m/s 724 mmHg 89%
    13:00 +19°C° 0.1 mm 1 m/s 724 mmHg 84%
    14:00 +20°C° 0.1 mm 1 m/s 724 mmHg 79%
    15:00 +20°C° 0 mm 1 m/s 723 mmHg 80%
    16:00 +20°C° 0 mm 1 m/s 723 mmHg 80%
    17:00 +20°C° 0 mm 1 m/s 723 mmHg 80%
    18:00 +19°C° 0 mm 1 m/s 724 mmHg 85%
    19:00 +18°C° 0 mm 1 m/s 724 mmHg 90%
    20:00 +16°C° 0 mm 1 m/s 725 mmHg 94%
    21:00 +16°C° 0 mm 1 m/s 725 mmHg 94%
    22:00 +16°C° 0 mm 1 m/s 725 mmHg 94%
    23:00 +16°C° 0 mm 1 m/s 726 mmHg 93%

    27 Martie, Miercuri

    Timp Temperatura Precipitaţii Vânt Presiune Umiditate
    00:00 +16°C° 0 mm 1 m/s 725 mmHg 93%
    01:00 +15°C° 0 mm 1 m/s 725 mmHg 94%
    02:00 +14°C° 0 mm 0 m/s 725 mmHg 94%
    03:00 +14°C° 0 mm 0 m/s 725 mmHg 94%
    04:00 +14°C° 0 mm 0 m/s 725 mmHg 94%
    05:00 +14°C° 0 mm 0 m/s 724 mmHg 94%
    06:00 +14°C° 0 mm 0 m/s 725 mmHg 92%
    07:00 +16°C° 0 mm 1 m/s 725 mmHg 90%
    08:00 +16°C° 0 mm 1 m/s 725 mmHg 87%
    09:00 +19°C° 0 mm 1 m/s 725 mmHg 79%
    10:00 +20°C° 0 mm 2 m/s 725 mmHg 72%
    11:00 +23°C° 0 mm 2 m/s 724 mmHg 64%
    12:00 +24°C° 0 mm 2 m/s 723 mmHg 63%
    13:00 +24°C° 0 mm 2 m/s 723 mmHg 61%
    14:00 +25°C° 0 mm 2 m/s 722 mmHg 60%
    15:00 +25°C° 0 mm 2 m/s 721 mmHg 62%
    16:00 +25°C° 0 mm 1 m/s 721 mmHg 64%
    17:00 +25°C° 0 mm 1 m/s 721 mmHg 66%
    18:00 +23°C° 0 mm 1 m/s 721 mmHg 72%
    19:00 +22°C° 0 mm 1 m/s 721 mmHg 79%
    20:00 +20°C° 0 mm 1 m/s 722 mmHg 85%
    21:00 +20°C° 0 mm 1 m/s 722 mmHg 86%
    22:00 +19°C° 0 mm 1 m/s 722 mmHg 86%
    23:00 +19°C° 0 mm 1 m/s 722 mmHg 87%
    Arată mai mult